Simultaneous Nadir Overpasses (SNOs) Predictions

Prediction of SNOs between LANDSAT-8 and METOP-B Satellite Orbit:

Table of predicted SNOs for the next 14.0 days since TLE Epoch: 1/30/2016
Index Date (LANDSAT-8) Time (LANDSAT-8) Lat,Lon (LANDSAT-8) SZA (LANDSAT-8 ) Date (METOP-B) Time (METOP-B) Lat,Lon (METOP-B) SZA (METOP-B ) Distance(km) Time Diff (sec)
1 02/01/2016 19:40:41 81.20, -74.23 100.01 02/01/2016 19:40:10 81.19, -74.28 99.99 1.07 31
2 02/01/2016 20:30:07 -81.22, 93.72 79.97 02/01/2016 20:30:49 -81.22, 93.74 79.95 0.51 42
3 02/04/2016 15:14:56 81.18, -8.05 99.14 02/04/2016 15:14:29 81.18, -8.18 99.12 2.21 27
4 02/04/2016 16:04:22 -81.20, 159.92 80.83 02/04/2016 16:05:08 -81.21, 159.84 80.81 1.39 46
5 02/07/2016 10:49:09 81.19, 58.43 98.29 02/07/2016 10:48:46 81.19, 58.29 98.27 2.42 23
6 02/07/2016 11:38:35 -81.21,-133.57 81.68 02/07/2016 11:39:25 -81.21,-133.68 81.67 1.86 50
7 02/10/2016 06:23:23 81.19, 124.87 97.40 02/10/2016 06:23:04 81.19, 124.77 97.38 1.67 19
8 02/10/2016 07:12:49 -81.21, -67.11 82.56 02/10/2016 07:13:43 -81.21, -67.19 82.55 1.34 54
9 02/13/2016 01:57:36 81.21,-168.38 96.52 02/13/2016 01:57:21 81.20,-168.37 96.51 0.45 15




NCC Satellite Simultaneous Nadir Overpasses (SNOs) Prediction Service
